Dewpoint
15 18 13 14 16 18 21 18 17 16 13 11 10 10 8 7 7 12 12 11 11 11 9 8 9 7 8 9 12 18 23 25 37 46 47 47 49 52 55 56 56 57 58 58 61 60 62 63 64 64 64 63 64 64 65 65 65 66 65 66 66 67 67 67 66 65 64 65 65 66 63 66 65 64 65 65 66 66 67 66 65 66 66 67 67 66
20 18 16 13 15 18 21 25 28 26 23 15 13 12 9 8 8 12 14 12 12 19 9 10 8 9 11 13 12 18 23 18 28 41 48 47 47 48 52 56 56 56 56 58 62 62 63 62 63 64 63 62 63 63 64 64 65 66 66 66 66 67 67 66 66 65 65 66 64 66 64 64 64 64 64 65 66 67 66 67 67 67 67 66 66 66
23 18 18 17 21 28 29 29 27 27 24 20 15 12 11 8 8 14 13 12 11 14 11 7 8 9 11 10 11 18 22 22 24 28 43 47 45 45 47 54 56 55 56 58 60 63 62 63 64 62 62 62 62 64 64 65 65 66 66 66 66 66 66 65 65 66 64 66 66 66 64 64 63 65 66 66 65 66 64 67 67 67 67 65 64 64
23 17 18 17 28 28 28 27 27 27 27 22 18 15 12 10 12 9 19 12 13 13 12 12 12 14 17 18 18 20 21 23 23 25 31 44 45 43 44 51 55 55 56 58 59 61 62 63 63 63 63 63 63 63 64 65 65 65 65 66 66 67 66 65 66 65 66 68 68 67 67 66 66 64 66 65 66 66 66 65 65 66 66 64 64 63
15 19 18 25 25 22 26 26 25 23 19 23 21 14 11 11 12 11 11 14 19 15 21 13 14 10 13 13 13 19 29 30 31 31 36 43 44 46 45 48 55 56 58 58 59 61 62 63 62 63 63 63 63 63 64 64 64 65 65 65 66 67 66 65 66 67 67 67 67 67 67 66 65 65 65 65 64 65 66 65 65 64 64 64 63 63
16 23 25 22 21 19 23 22 23 23 20 17 23 20 16 16 15 10 13 11 12 11 19 14 8 10 14 12 12 20 34 29 32 34 30 33 44 47 47 48 52 57 58 59 59 60 62 63 64 64 64 64 64 63 64 65 65 65 66 66 66 65 65 65 67 67 67 65 64 65 64 64 65 65 64 63 64 64 63 62 64 63 64 63 63 62
19 27 24 20 21 19 17 19 20 20 16 17 16 21 18 11 12 10 11 13 7 6 21 25 10 8 13 17 17 18 21 21 36 41 38 33 30 36 45 46 50 53 56 58 58 60 62 63 63 64 63 63 64 64 65 65 65 65 66 65 64 64 65 65 65 66 66 66 65 65 64 63 62 61 61 64 64 64 63 62 64 62 64 63 64 63
23 24 23 22 24 20 19 18 19 19 16 11 22 13 10 10 12 14 11 9 6 18 24 19 13 12 8 10 17 19 23 21 34 42 42 37 36 32 39 47 51 53 55 56 58 61 63 63 64 63 63 64 63 64 64 65 65 65 65 65 65 64 64 65 65 65 66 66 66 65 64 64 64 64 63 65 65 65 63 62 62 63 63 63 62 63
27 26 25 23 23 20 18 18 22 20 15 13 15 12 11 11 14 11 11 12 14 19 12 16 16 14 11 13 19 23 18 18 41 44 44 40 40 39 39 46 51 52 55 56 57 62 62 63 63 60 60 62 64 63 64 64 65 65 65 65 65 64 64 65 65 66 66 65 66 65 64 64 64 64 64 64 64 63 63 63 62 62 60 61 62 61
23 23 22 20 19 17 18 18 20 20 18 16 16 14 14 14 13 12 13 11 18 19 12 12 17 10 5 9 13 21 14 32 42 44 45 46 45 45 47 48 52 55 57 59 59 61 62 62 63 61 61 63 63 64 64 64 64 65 64 64 63 64 65 65 64 65 66 65 65 64 63 64 65 63 63 63 63 62 63 62 62 61 61 60 62 63
20 28 27 21 19 17 17 16 17 19 18 16 14 12 14 13 16 17 17 16 19 16 14 12 18 10 5 10 26 31 41 43 44 45 46 47 48 46 50 50 53 56 59 60 60 61 61 62 62 63 63 63 63 64 64 65 64 64 63 63 63 64 64 64 65 64 64 63 63 63 64 65 64 64 64 62 62 61 62 61 60 59 59 59 59 61
20 18 18 21 23 21 20 20 21 20 18 16 13 12 13 17 19 19 21 20 15 12 12 12 16 13 13 13 37 45 44 44 45 46 46 47 46 48 51 50 55 57 59 58 59 60 62 62 63 62 63 63 63 64 64 64 64 63 63 63 63 63 63 64 64 64 63 64 63 63 63 65 64 63 62 61 60 59 58 59 59 59 59 59 59 60
20 17 17 17 24 20 19 16 17 18 17 14 14 14 14 14 14 12 14 15 12 10 19 14 12 15 12 27 36 42 44 44 46 44 46 46 47 50 50 53 56 59 57 57 58 60 62 62 62 62 62 63 63 62 63 63 62 63 63 63 62 61 62 63 64 63 63 64 63 64 64 64 64 64 63 61 61 61 61 59 59 58 58 58 59 59
20 18 17 17 18 20 18 13 12 12 13 13 13 16 13 8 11 12 9 12 8 9 18 18 15 11 10 38 42 43 45 44 46 49 50 50 51 53 54 56 57 57 58 59 59 60 61 60 60 60 61 61 62 62 62 62 61 62 62 62 62 61 63 63 63 63 63 63 64 64 65 64 64 63 61 61 61 60 58 58 59 58 57 57 58 58
16 17 17 18 17 18 18 16 12 13 12 11 12 10 15 13 11 12 6 7 9 6 22 18 17 11 8 29 43 46 47 47 47 47 50 52 52 53 53 54 55 57 57 58 58 56 58 59 60 59 60 60 61 62 62 62 62 62 61 61 61 61 62 63 63 63 64 63 65 65 65 64 62 60 60 59 60 60 59 59 59 59 58 57 58 57
14 14 17 17 17 17 16 17 17 14 13 11 10 10 13 14 16 10 19 14 14 9 18 20 15 20 27 44 46 47 46 47 47 47 48 50 52 52 51 54 56 57 57 57 57 57 58 58 59 60 61 61 62 62 62 62 62 61 61 61 60 61 62 62 62 63 64 65 64 64 63 64 61 60 61 60 60 60 60 59 59 59 59 58 58 59
15 17 14 17 18 17 15 16 17 17 17 16 12 13 12 15 14 18 24 33 24 15 11 18 19 19 39 39 43 45 46 46 46 46 47 49 49 51 52 54 54 55 56 57 58 57 57 58 60 60 61 61 62 61 61 61 61 61 61 61 61 61 61 62 62 63 64 64 64 64 64 63 64 63 61 61 62 61 61 61 59 58 58 59 59 59
19 17 16 16 15 17 16 16 14 14 12 17 14 10 14 16 18 21 13 19 13 10 16 20 13 20 26 28 39 40 45 46 47 47 47 50 50 51 52 53 54 55 57 58 58 58 58 58 59 60 60 60 61 62 62 61 62 62 61 61 61 61 61 61 61 63 64 64 63 63 63 64 63 62 62 62 62 62 61 60 59 59 59 58 59 59
19 16 16 13 12 15 17 15 14 15 15 13 13 16 14 16 14 17 18 14 14 13 9 13 13 15 20 26 35 39 43 47 48 49 48 49 51 53 53 54 54 55 56 57 57 58 58 59 61 60 59 59 62 62 61 60 61 61 62 62 62 62 61 61 62 63 63 63 63 63 63 64 63 62 62 61 61 61 60 59 59 58 58 59 59 58
26 19 17 17 15 16 15 14 16 13 14 14 17 14 14 21 23 15 17 14 16 11 14 19 16 13 36 37 41 41 43 47 47 48 49 50 51 52 53 53 53 53 54 54 54 56 58 58 60 59 59 59 61 61 62 61 61 61 62 62 62 62 61 62 63 63 63 62 62 63 63 63 62 61 61 61 60 59 59 57 58 59 60 59 57 57
24 28 19 17 17 16 15 16 14 13 15 13 15 15 16 23 22 20 27 15 16 14 10 12 12 25 38 41 40 42 43 47 48 47 49 50 51 52 53 54 54 54 54 53 54 55 57 59 59 58 59 59 60 61 61 62 61 61 61 62 62 62 61 61 62 63 62 62 62 62 63 63 62 62 60 61 60 59 59 59 59 59 60 58 58 58
23 27 19 22 15 14 14 21 26 23 20 14 15 16 13 16 16 12 15 15 15 14 15 13 12 33 42 42 44 43 44 46 49 49 49 51 51 51 52 53 54 54 56 55 57 57 57 59 58 58 57 58 60 59 59 61 60 61 60 61 61 61 60 62 61 61 61 61 61 62 63 63 63 62 61 62 61 60 59 59 58 60 59 58 57 56
29 28 23 19 18 16 24 27 28 27 26 25 20 15 11 18 18 16 13 18 16 13 15 18 17 32 44 44 45 45 45 46 48 49 48 48 49 51 51 51 52 54 54 55 56 56 57 58 59 59 58 59 60 60 60 59 60 60 60 60 61 59 62 61 61 61 61 61 61 61 62 62 62 61 62 62 61 60 59 59 59 58 58 57 55 55
29 24 21 18 18 18 23 27 28 27 28 22 21 25 22 19 22 21 18 23 19 22 16 16 16 30 45 45 47 48 49 48 48 49 51 49 50 50 51 52 52 52 54 54 55 57 56 58 59 57 58 58 59 59 59 59 59 59 60 61 60 61 62 62 62 61 60 60 60 61 61 61 61 62 62 61 59 59 59 59 58 56 56 54 54 52
24 26 23 19 18 23 24 24 24 27 27 27 30 34 30 28 27 30 28 29 17 25 17 14 14 31 45 47 47 47 46 46 46 46 47 47 48 48 49 50 50 51 52 53 54 56 56 56 57 57 57 56 57 57 58 58 59 58 59 60 60 61 62 61 60 60 60 60 60 61 61 61 61 62 61 60 59 60 59 59 57 55 53 54 53 52
24 29 25 18 18 17 19 18 19 21 22 33 33 32 32 28 32 29 17 18 17 25 19 16 25 39 45 46 45 46 45 45 45 45 45 45 46 46 47 48 48 49 49 51 52 54 55 55 55 56 57 56 56 56 57 57 58 59 59 59 60 60 61 61 60 60 60 60 60 60 60 60 61 61 60 60 60 60 59 58 57 55 54 52 51 52
31 36 32 32 28 20 23 28 31 30 29 24 31 34 34 34 35 36 29 20 15 24 21 24 33 39 41 45 44 44 45 44 43 44 44 44 45 45 45 45 46 47 48 49 50 52 54 55 55 56 56 55 56 56 56 57 58 59 59 59 59 59 60 60 60 60 59 59 58 59 60 60 60 60 60 60 60 60 58 57 57 55 53 52 51 52
36 31 36 39 34 28 28 31 32 32 29 32 33 36 34 36 39 36 24 23 36 26 16 40 40 40 40 42 43 42 43 42 42 42 42 43 43 44 44 44 45 45 46 47 48 49 49 51 53 55 56 57 56 56 56 57 59 59 59 59 59 59 60 60 60 59 59 58 58 57 59 59 60 60 60 60 59 58 58 57 56 55 54 52 51 51
32 27 39 37 33 31 31 31 31 31 32 33 34 37 38 38 38 37 35 36 39 26 19 39 41 41 38 39 40 40 41 40 40 41 42 42 42 42 42 42 42 43 44 44 46 47 47 48 48 49 52 54 54 55 56 57 57 57 58 59 59 59 59 59 59 58 58 59 61 60 59 60 60 61 60 58 57 58 57 57 57 55 54 53 53 53
37 32 35 37 32 33 32 32 32 32 32 32 34 35 36 38 39 40 40 40 40 40 40 40 40 37 37 37 38 39 41 40 40 41 40 40 40 40 40 41 41 41 42 42 43 44 45 46 46 46 48 48 51 52 52 54 56 57 57 58 58 58 58 60 58 58 59 59 58 58 57 59 59 59 58 57 56 56 57 57 57 57 55 54 53 53
37 33 37 38 36 32 36 34 32 32 34 34 33 33 34 36 36 37 38 39 40 40 42 40 38 35 37 38 39 40 39 39 38 38 38 39 39 39 39 39 40 40 40 40 41 42 43 44 45 45 44 45 46 48 48 52 53 53 53 56 57 56 57 57 58 58 57 56 57 57 56 58 57 57 57 57 56 56 55 55 55 55 55 55 55 55
39 34 36 35 30 32 35 34 32 34 34 34 35 36 35 36 36 37 35 38 38 37 39 39 36 35 37 38 38 39 38 37 38 37 37 37 38 38 37 38 39 38 38 39 40 41 41 42 43 44 43 44 44 47 46 46 49 49 49 51 53 57 58 57 57 56 56 55 55 55 55 56 56 55 56 57 55 55 55 56 56 54 54 54 54 55
38 36 33 32 27 30 34 34 33 35 33 28 31 34 36 36 36 37 37 38 38 39 38 35 36 35 38 37 36 36 36 36 36 37 37 37 38 38 38 37 38 37 38 38 39 39 40 40 40 41 41 42 43 45 46 44 46 49 50 51 52 53 54 54 56 56 55 55 56 54 54 53 54 55 55 55 55 56 56 58 58 58 56 56 57 58
41 36 31 33 28 28 32 34 35 31 26 26 34 37 37 36 36 36 36 36 37 39 36 37 36 36 36 36 35 34 34 35 36 37 37 37 37 38 38 39 39 39 39 38 38 38 39 39 40 40 41 42 45 45 48 45 44 45 47 46 49 50 50 51 51 53 55 56 55 54 53 53 52 53 55 56 57 58 57 58 58 59 59 59 58 58
38 37 31 33 28 28 32 33 28 26 26 33 36 35 37 37 36 35 35 35 36 37 37 35 35 35 35 34 35 35 35 37 36 37 37 38 38 37 36 37 38 38 37 38 38 37 38 39 40 40 41 43 42 40 41 42 42 45 46 46 43 45 50 50 49 51 50 48 51 55 56 55 54 55 56 57 57 57 57 58 58 57 56 57 58 57
34 32 29 29 30 31 29 28 25 26 32 36 36 36 37 37 37 37 35 35 35 36 36 34 34 34 34 34 35 35 35 35 35 36 37 37 37 39 37 36 37 37 37 38 39 39 38 39 40 41 40 41 39 36 37 40 41 39 41 42 40 41 41 41 42 42 44 45 44 46 48 50 52 53 53 54 55 57 56 56 56 56 57 56 56 56
40 36 29 27 32 26 28 27 28 33 33 33 32 33 33 32 34 34 31 35 36 35 35 34 34 34 35 36 35 35 36 34 33 35 37 36 36 37 39 38 38 38 38 39 39 40 41 42 42 42 41 40 40 37 38 38 38 38 38 38 36 36 37 38 39 39 41 42 42 43 44 45 45 46 48 50 50 50 51 54 56 56 57 56 56 56
36 34 32 29 27 29 27 27 27 28 25 29 34 36 37 36 36 36 37 35 37 36 36 34 34 34 34 35 36 34 35 32 31 31 35 36 35 35 34 37 38 39 39 38 39 40 41 42 43 42 41 40 39 38 37 38 38 37 37 36 35 35 36 36 37 37 38 39 40 41 42 42 42 43 44 44 45 46 47 49 50 52 53 53 53 53
36 33 32 27 28 28 27 25 25 24 28 32 33 34 35 35 36 37 36 31 36 36 36 35 34 35 34 34 37 37 37 31 30 32 36 37 36 36 35 35 36 37 38 39 38 38 40 41 42 40 37 38 39 40 37 37 38 35 37 37 36 36 36 37 36 37 37 38 38 39 40 41 42 42 42 43 45 46 46 46 47 48 49 48 49 50
34 29 28 27 29 28 27 25 25 28 27 33 34 34 35 36 38 36 29 29 36 37 36 35 35 35 37 37 39 39 35 30 29 32 37 37 37 38 38 37 37 38 39 38 38 38 38 39 42 40 38 37 37 38 36 40 37 38 36 36 37 37 37 38 38 36 37 37 39 39 40 41 42 42 42 42 44 45 45 46 47 46 45 45 44 45
27 27 27 26 26 27 27 26 28 29 32 35 34 34 35 38 36 31 26 31 38 37 37 37 37 37 39 39 40 35 36 36 34 36 37 37 36 37 38 39 39 40 40 39 39 40 38 36 37 38 40 37 37 37 36 36 37 37 37 37 37 37 38 38 38 38 38 38 38 38 39 39 41 42 43 42 43 44 44 45 46 47 47 45 44 48
26 27 26 27 25 25 26 25 27 29 33 33 34 35 37 37 28 28 34 38 39 37 38 37 37 40 39 39 38 36 35 35 36 37 37 37 37 37 37 38 39 40 40 40 40 40 41 40 39 37 37 39 37 37 36 36 37 37 36 36 37 37 37 38 37 38 37 37 38 39 39 40 42 43 43 43 43 43 42 43 44 45 44 45 47 47
25 26 24 25 26 26 26 24 23 24 31 35 35 34 35 32 33 35 37 38 38 37 37 39 39 39 38 37 37 36 36 36 35 35 36 36 37 37 36 36 36 36 37 37 37 39 40 39 39 39 37 37 38 38 37 37 38 36 36 36 36 36 37 37 37 37 37 37 38 38 38 40 41 42 42 42 42 41 41 41 41 42 43 43 43 44
31 25 24 26 30 24 25 25 25 29 32 35 35 31 34 34 36 37 38 36 37 38 39 39 39 39 38 36 37 37 37 36 36 36 36 36 36 35 35 34 34 34 34 34 35 35 35 37 38 39 38 36 36 36 37 37 38 37 36 36 35 35 35 35 36 36 36 37 37 37 36 36 38 40 41 41 41 40 41 41 40 39 40 40 39 38
32 30 30 27 31 29 28 29 32 34 35 36 36 36 37 38 40 42 40 40 39 39 38 37 37 38 37 36 36 36 36 37 37 37 36 36 35 34 34 34 34 34 34 34 34 34 33 33 36 36 36 36 36 36 36 36 36 36 36 37 36 34 35 35 35 36 35 36 37 37 36 37 37 38 38 38 38 39 38 40 39 37 38 38 37 37
32 32 34 32 30 32 33 34 35 34 35 36 37 37 37 38 39 40 40 39 40 41 39 37 37 37 37 37 35 35 34 34 34 34 34 33 33 33 33 33 33 34 34 34 34 33 32 33 34 34 34 34 35 36 37 36 35 36 36 36 36 35 35 36 36 36 35 35 35 36 34 37 37 37 39 39 37 38 37 39 37 36 37 36 36 36
31 31 31 30 32 29 28 33 34 35 35 36 36 37 37 38 39 39 38 38 39 40 40 40 36 36 36 35 33 33 33 32 32 32 32 32 31 32 33 34 35 35 35 34 35 34 34 33 33 33 34 35 35 35 35 35 35 35 35 35 34 35 35 35 36 36 36 36 35 37 36 37 36 36 37 38 36 37 37 36 37 38 36 35 36 37
27 31 30 30 30 29 29 33 35 36 36 36 36 36 37 37 37 37 38 38 39 39 40 40 39 33 32 32 32 32 32 31 31 31 30 30 30 30 30 32 33 34 34 33 33 33 33 33 33 34 34 34 35 35 35 35 34 35 35 35 35 35 35 36 36 36 36 36 36 35 35 35 33 35 36 36 35 34 35 36 37 37 37 36 37 37
30 31 26 29 29 31 32 32 32 31 32 33 35 37 37 37 37 37 37 37 37 37 38 39 40 39 34 32 32 31 30 30 30 30 29 29 30 30 31 32 33 33 32 31 31 32 31 32 32 34 34 35 35 35 35 35 35 35 36 36 36 36 36 36 36 36 36 35 35 35 35 35 35 34 34 35 36 35 34 34 35 36 37 38 35 36
27 24 25 25 24 25 28 31 33 26 26 29 32 35 36 37 37 37 38 37 36 36 37 37 37 38 37 36 33 31 30 29 30 30 28 29 29 31 32 32 32 32 32 32 33 33 34 34 34 33 32 32 33 32 33 33 34 35 33 34 34 35 36 36 36 36 35 34 34 35 35 36 35 35 34 35 34 35 36 33 34 34 34 36 35 35
24 31 26 20 21 26 30 30 31 30 30 31 33 35 36 37 37 37 38 38 38 38 38 37 36 36 37 37 35 33 31 31 30 28 29 28 30 31 32 32 31 31 32 33 33 33 34 35 34 35 34 34 34 34 34 34 33 33 33 34 34 35 35 36 34 35 34 33 33 33 34 34 35 34 34 34 34 35 34 36 34 34 34 34 35 34